Regional Weather Roundup
Issued by NWS

Home | Current Version | Previous Version | Graphics & Text | Print | Product List | Glossary On
Versions: 1 2 3 4 5 6 7 8 9 10 11 12 13 14 15 16 17 18 19 20 21 22 23 24 25 26 27 28 29 30 31 32 33 34 35 36 37 38 39 40 41 42 43 44 45
000
ASUS45 KBOU 242310
RWRCO

WEATHER ROUNDUP FOR COLORADO
NATIONAL WEATHER SERVICE DENVER/BOULDER CO
400 PM MST SAT FEB 24 2018

NOTE: "FAIR" INDICATES FEW OR NO CLOUDS BELOW 12000 FEET WITH NO
SIGNIFICANT WEATHER AND/OR OBSTRUCTIONS TO VISIBILITY.

COZ001>005-013-030-031-250000-
...NORTHWEST COLORADO...

CITY           SKY/WX    TMP DP  RH WIND       PRES   REMARKS
CRAIG          FAIR      22   4  46 W7        29.90F WCI  13
HAYDEN         FAIR      20   7  57 W10       29.89S WCI   9
MEEKER         CLOUDY    22  12  65 SW12      29.89S WCI  10
RANGELY        FAIR      28   7  40 NW6       29.92F WCI  22
RABBIT EARS PA LGT SNOW N/A N/A N/A W12G22    29.69R
STEAMBOAT SPGS CLOUDY    19   4  54 W8        29.86S WCI   8
WALDEN         CLOUDY    16  -2  45 SW13G18   29.78F WCI   2
$$

COZ006>008-011-250000-
...WEST CENTRAL VALLEYS...

CITY           SKY/WX    TMP DP  RH WIND       PRES   REMARKS
GRAND JUNCTION FAIR      34   5  29 W12       29.94F WCI  25
MONTROSE       FAIR      31   2  29 W10       29.95F WCI  22
EAGLE          FAIR      25   8  48 SW17G23   29.89F WCI  12
RIFLE          FAIR      27   5  39 CALM      29.94F
DELTA          FAIR      38   2  22 SW7       29.95F
NUCLA          FAIR      30   5  34 S15       29.99F WCI  19
$$

COZ017>023-064>068-250000-
...SOUTHWEST COLORADO...

CITY           SKY/WX    TMP DP  RH WIND       PRES   REMARKS
DURANGO        FAIR      31   8  38 W15       29.93F WCI  20
CORTEZ         FAIR      33   6  32 NW7G18    29.98F WCI  27
PAGOSA SPRINGS FAIR      29  -3  25 SW13      29.91S WCI  18
TELLURIDE      FAIR      21  -8  26 CALM      29.87F
WOLF CREEK PAS   N/A      5   3  92 S25G37    29.81R WCI -18
$$

COZ009-010-012-014-032>034-037-058>063-250000-
...CENTRAL COLORADO...

CITY           SKY/WX    TMP DP  RH WIND       PRES   REMARKS
ASPEN          FAIR      21   5  50 CALM      29.82F
BUENA VISTA    FAIR      27 -10  19 W13G28    29.77R WCI  17
COPPER MTN     CLOUDY     5   0  78 W16G22    29.65S WCI -14
BERTHOUD PASS  FAIR      -4 -13  65 W45G54    29.52R WCI -36
COTTONWOOD PAS FAIR      23  -8  25 W23G48    29.70S WCI   7
GUNNISON       FAIR      23   0  36 W10       29.85F WCI  12
GRANBY         CLOUDY    16   8  71 W16       29.77F HAZE    WCI   0
KREMMLING      PTSUNNY   27   3  36 W13G21    29.82F WCI  16
LEADVILLE      FAIR      11  -3  53 NW14G26   29.71R WCI  -5
MONARCH PASS   PTSUNNY    3   0  85 W31G40    29.80S WCI -22
SALIDA         FAIR      29  -6  22 W22G35    29.86R WCI  15
SUNLIGHT       FAIR       7   1  78 SW8G17      N/A  WCI  -6
WILKERSON PASS FAIR      10  -8  44 W12G22    29.67S WCI  -4
$$

COZ069>075-250000-
...SAN LUIS VALLEY/SANGRE DE CRISTO MOUNTAINS...

CITY           SKY/WX    TMP DP  RH WIND       PRES   REMARKS
ALAMOSA        FAIR      32  -7  18 VRB3G20   29.81F
DEL NORTE      FAIR      30  -1  26 SW24G30   29.81R WCI  16
LA VETA PASS   FAIR      21  -8  27 S22G41    29.84F WCI   5
SAGUACHE       FAIR      30  -4  22 NW22G30   29.81F WCI  17
$$

COZ035-036-038>040-250000-
...NORTHERN COLORADO FRONT RANGE...

CITY           SKY/WX    TMP DP  RH WIND       PRES   REMARKS
DENVER INTL AP FAIR      35   2  24 W18G26    29.73S WCI  24
AURORA         MOSUNNY   34   5  28 N13       29.73S WCI  25
FRONT RANGE AP MOSUNNY   37   1  22 W21G26    29.74S
ERIE MUNI ARPT FAIR      34   1  24 E9        29.79S WCI  26
BOULDER MUN AP FAIR      36   0  21 CALM      29.73S
CENTENNIAL     FAIR      35   1  23 N6        29.72R WCI  30
BROOMFIELD     MOSUNNY   32   7  34 W28G35    29.73S WCI  18
FORT COLLINS   FAIR      32   8  36 W21G26    29.72F WCI  20
LONGMONT       FAIR      37   6  28 W20G29    29.76R
$$

COZ041-046-047-076>085-087-088-250000-
...PIKES PEAK/PALMER DIVIDE AND SOUTHERN FOOTHILLS...

CITY           SKY/WX    TMP DP  RH WIND       PRES   REMARKS
COLO. SPRINGS  FAIR      38  -5  16 NW21G31   29.71S
A. F. ACADEMY  FAIR      34  -7  16 W25G41    29.70F WCI  21
SCHRIEVER AFB  NOT AVBL
CHEYENNE MTN   FAIR      30  -9  18 W6        29.66R WCI  24
ELLICOTT         N/A    N/A N/A N/A NW17G24   29.72R
FALCON         FAIR      34 -11  13 W18G29    29.72S WCI  23
FORT CARSON    FAIR      40  -7  13 W13G24    29.71R
LIMON          FAIR      37   0  21 NW16      29.74R
MONUMENT HILL  FAIR      32  -6  19 W9        29.71S WCI  24
CANON CITY     SUNNY     43  -6  13 W15G25    29.74S
WALSENBURG     NOT AVBL
TRINIDAD       FAIR      44 -12   9 NW16      29.77R
$$

COZ042>045-048>051-090-091-250000-
...NORTHEAST COLORADO...

CITY           SKY/WX    TMP DP  RH WIND       PRES   REMARKS
GREELEY ARPT   FAIR      33   8  35 N12       29.77R WCI  24
AKRON          FAIR      34   6  31 NW31G39   29.76R WCI  20
BURLINGTON     FAIR      39  10  30 N15G24    29.77R
WRAY           FAIR      37   9  30 NW29G38   29.79R
YUMA           NOT AVBL
STERLING       FAIR      36   7  30 NW23G30   29.79R
HOLYOKE        FAIR      37  10  32 NW25G40   29.78R
FORT MORGAN    FAIR      36   2  24 NW21G28   29.78S
$$

COZ086-089-092>099-250000-
...SOUTHEAST COLORADO...

CITY           SKY/WX    TMP DP  RH WIND       PRES   REMARKS
PUEBLO         FAIR      46  -2  13 W22G31    29.74F
LA JUNTA         N/A     49  -5  10 W17G24    29.75S
LAMAR          FAIR      49  -4  11 W14       29.76R
SPRINGFIELD      N/A     46  -7  10 W12       29.79R
$$




USA.gov is the U.S. government's official web portal to all federal, state and local government web resources and services.